Regional Weather Roundup
Issued by NWS Raleigh/Durham, NC

Home | Current Version | Previous Version | Text Only | Print | Product List | Glossary On
Versions: 1 2 3 4 5 6 7 8 9 10 11 12 13 14 15 16 17 18 19 20 21 22 23 24 25 26 27 28 29 30 31 32 33 34 35 36 37 38 39 40 41 42 43 44 45 46 47 48 49 50
000
ASUS42 KRAH 271710
RWRRAH
NORTH CAROLINA WEATHER ROUNDUP
NATIONAL WEATHER SERVICE RALEIGH NC
100 PM EDT FRI MAR 27 2015

NOTE: "FAIR" INDICATES FEW OR NO CLOUDS BELOW 12,000 FEET WITH NO
SIGNIFICANT WEATHER AND/OR OBSTRUCTIONS TO VISIBILITY.

NCZ001-053-055-056-065-067-271800-
WESTERN NORTH CAROLINA

CITY           SKY/WX    TMP DP  RH WIND       PRES   REMARKS
ASHEVILLE      CLOUDY    46  33  60 N18G26    29.77F
JEFFERSON      CLOUDY    37  28  70 NW14      29.76R WCI  29
MORGANTON      CLOUDY    48  41  75 CALM      29.83R
HICKORY        CLOUDY    48  38  68 NE7       29.78R
RUTHERFORDTON  CLOUDY    49  40  70 NE5       29.78S
MOUNT AIRY     CLOUDY    46  37  73 N7        29.81S
BOONE          RAIN      36  31  83 NW13      29.76S WCI  28
$$

NCZ021-022-025-041-071-084-088-271800-
CENTRAL NORTH CAROLINA

CITY           SKY/WX    TMP DP  RH WIND       PRES   REMARKS
CHARLOTTE      CLOUDY    48  40  73 N12G20    29.77S
GREENSBORO     LGT RAIN  44  40  85 N9        29.78R
WINSTON-SALEM  CLOUDY    43  39  86 N15       29.81R
RALEIGH-DURHAM CLOUDY    46  43  89 NE8       29.77F
FORT BRAGG     CLOUDY    50  46  85 NE12G21   29.72S
FAYETTEVILLE   CLOUDY    49  45  86 NE13G28   29.72F
BURLINGTON     LGT RAIN  45  42  89 N12G20    29.78R
LAURINBURG     CLOUDY    50  45  83 NE22G28   29.72R
$$

NCZ011-015-027-028-043-044-047-080-103-271800-
NORTHEASTERN NORTH CAROLINA

CITY           SKY/WX    TMP DP  RH WIND       PRES   REMARKS
ROCKY MT-WILSO CLOUDY    47  44  90 N13       29.79R
GREENVILLE     RAIN      48  46  93 NE13G21   29.77S
WASHINGTON     DRIZZLE   47  44  91 N15       29.77R
ELIZABETH CITY LGT RAIN  46  45  93 N17       29.75R FOG
MANTEO         CLOUDY    43  41  93 N22G29    29.73R
CAPE HATTERAS  CLOUDY    47  44  90 N12G23    29.71R
$$

NCZ078-087-090-091-093-098-101-271800-
SOUTHEASTERN NORTH CAROLINA

CITY           SKY/WX    TMP DP  RH WIND       PRES   REMARKS
LUMBERTON      RAIN      51  47  86 NE17G26   29.69S FOG
GOLDSBORO      CLOUDY    48  47  99 N12       29.73R
KINSTON        RAIN      48  48 100 N13       29.75R
KENANSVILLE    LGT RAIN  49  47  92 N12       29.74R
NEW BERN       CLOUDY    50  46  86 NE14      29.71S
CHERRY POINT   LGT RAIN  52  49  89 NE12      29.70R
BEAUFORT       CLOUDY    53  51  93 NE13G20   29.69S
JACKSONVILLE   CLOUDY    57  52  83 N21       29.69R
WILMINGTON     LGT RAIN  70  62  76 SW9       29.64F
$$




USA.gov is the U.S. government's official web portal to all federal, state and local government web resources and services.